When you browse on this site, cookies collect data to enhance your experience and personalize the content and advertising you see.
Visit our Privacy Policy to learn more. By continuing to use the site, you agree to this use of cookies and data.
  • In Hungary
  • List of Countries
  • For 7 days
  • Water Temperature
  • Satellite Maps
  • Weather Map
  • News
  • Weather Widgets
  • user-avatar
    Login

    Hourly Weather Dunedin

    Today, 26 March, Tuesday

    Time Temperature Precipitation Wind Pressure Humidity
    00:00 +23°C° 0 mm 4 mps 745 mmHg 57%
    01:00 +23°C° 0 mm 4 mps 745 mmHg 60%
    02:00 +22°C° 0 mm 5 mps 744 mmHg 63%
    03:00 +22°C° 0 mm 5 mps 744 mmHg 66%
    04:00 +22°C° 0 mm 5 mps 743 mmHg 68%
    05:00 +21°C° 0 mm 4 mps 742 mmHg 71%
    06:00 +21°C° 0.1 mm 5 mps 742 mmHg 72%
    07:00 +22°C° 0.1 mm 5 mps 741 mmHg 73%
    08:00 +22°C° 0.1 mm 5 mps 741 mmHg 74%
    09:00 +23°C° 0.1 mm 5 mps 741 mmHg 70%
    10:00 +25°C° 0.1 mm 5 mps 741 mmHg 66%
    11:00 +27°C° 0.1 mm 5 mps 740 mmHg 62%
    12:00 +26°C° 0.5 mm 4 mps 740 mmHg 68%
    13:00 +25°C° 0.5 mm 3 mps 740 mmHg 74%
    14:00 +25°C° 0.5 mm 2 mps 740 mmHg 80%
    15:00 +23°C° 0.9 mm 2 mps 740 mmHg 85%
    16:00 +21°C° 0.9 mm 3 mps 740 mmHg 90%
    17:00 +20°C° 0.9 mm 3 mps 740 mmHg 95%
    18:00 +19°C° 1.2 mm 2 mps 741 mmHg 96%
    19:00 +18°C° 1.2 mm 2 mps 741 mmHg 96%
    20:00 +17°C° 1.2 mm 2 mps 741 mmHg 97%
    21:00 +16°C° 0.2 mm 2 mps 741 mmHg 96%
    22:00 +16°C° 0.2 mm 1 mps 742 mmHg 96%
    23:00 +16°C° 0.2 mm 1 mps 742 mmHg 96%

    Tomorrow, 27 March, Wednesday

    Time Temperature Precipitation Wind Pressure Humidity
    00:00 +16°C° 0 mm 1 mps 742 mmHg 96%
    01:00 +16°C° 0 mm 1 mps 742 mmHg 95%
    02:00 +15°C° 0 mm 1 mps 741 mmHg 95%
    03:00 +15°C° 0.2 mm 2 mps 742 mmHg 94%
    04:00 +15°C° 0.2 mm 2 mps 742 mmHg 92%
    05:00 +15°C° 0.2 mm 2 mps 742 mmHg 91%
    06:00 +15°C° 0.1 mm 2 mps 742 mmHg 86%
    07:00 +16°C° 0.1 mm 2 mps 742 mmHg 82%
    08:00 +17°C° 0.1 mm 3 mps 743 mmHg 77%
    09:00 +15°C° 0.1 mm 4 mps 744 mmHg 72%
    10:00 +15°C° 0.1 mm 6 mps 745 mmHg 66%
    11:00 +15°C° 0.1 mm 7 mps 745 mmHg 61%
    12:00 +16°C° 0 mm 7 mps 746 mmHg 56%
    13:00 +16°C° 0 mm 7 mps 746 mmHg 52%
    14:00 +16°C° 0 mm 8 mps 747 mmHg 48%
    15:00 +15°C° 0 mm 7 mps 748 mmHg 51%
    16:00 +14°C° 0 mm 7 mps 749 mmHg 54%
    17:00 +12°C° 0 mm 7 mps 750 mmHg 57%
    18:00 +11°C° 0 mm 7 mps 751 mmHg 61%
    19:00 +11°C° 0 mm 7 mps 752 mmHg 64%
    20:00 +10°C° 0 mm 7 mps 753 mmHg 68%
    21:00 +10°C° 0 mm 7 mps 754 mmHg 69%
    22:00 +9°C° 0 mm 6 mps 754 mmHg 70%
    23:00 +9°C° 0 mm 6 mps 755 mmHg 72%

    Day after tomorrow, 28 March, Thursday

    Time Temperature Precipitation Wind Pressure Humidity
    00:00 +8°C° 0 mm 5 mps 756 mmHg 75%
    01:00 +8°C° 0 mm 4 mps 756 mmHg 78%
    02:00 +7°C° 0 mm 4 mps 756 mmHg 81%
    03:00 +8°C° 0 mm 3 mps 757 mmHg 82%
    04:00 +8°C° 0 mm 3 mps 757 mmHg 83%
    05:00 +8°C° 0 mm 2 mps 757 mmHg 84%
    06:00 +9°C° 0 mm 2 mps 758 mmHg 77%
    07:00 +12°C° 0 mm 1 mps 759 mmHg 71%
    08:00 +13°C° 0 mm 1 mps 759 mmHg 65%
    09:00 +15°C° 0 mm 1 mps 759 mmHg 62%
    10:00 +16°C° 0 mm 1 mps 759 mmHg 59%
    11:00 +17°C° 0 mm 2 mps 759 mmHg 57%
    12:00 +17°C° 0 mm 2 mps 759 mmHg 60%
    13:00 +17°C° 0 mm 3 mps 759 mmHg 63%
    14:00 +17°C° 0 mm 4 mps 758 mmHg 66%
    15:00 +15°C° 0 mm 4 mps 758 mmHg 70%
    16:00 +14°C° 0 mm 4 mps 758 mmHg 74%
    17:00 +14°C° 0 mm 5 mps 759 mmHg 79%
    18:00 +13°C° 0 mm 4 mps 759 mmHg 83%
    19:00 +12°C° 0 mm 4 mps 759 mmHg 87%
    20:00 +11°C° 0 mm 4 mps 760 mmHg 91%
    21:00 +11°C° 0 mm 4 mps 760 mmHg 91%
    22:00 +10°C° 0 mm 4 mps 760 mmHg 91%
    23:00 +10°C° 0 mm 4 mps 760 mmHg 91%

    29 March, Friday

    Time Temperature Precipitation Wind Pressure Humidity
    00:00 +10°C° 0 mm 4 mps 760 mmHg 91%
    01:00 +10°C° 0 mm 4 mps 760 mmHg 91%
    02:00 +10°C° 0 mm 4 mps 760 mmHg 91%
    03:00 +10°C° 0 mm 4 mps 760 mmHg 91%
    04:00 +10°C° 0 mm 4 mps 759 mmHg 90%
    05:00 +10°C° 0 mm 4 mps 759 mmHg 90%
    06:00 +11°C° 0 mm 4 mps 760 mmHg 85%
    07:00 +12°C° 0 mm 5 mps 760 mmHg 81%
    08:00 +13°C° 0 mm 5 mps 760 mmHg 76%
    09:00 +15°C° 0 mm 5 mps 759 mmHg 71%
    10:00 +16°C° 0 mm 6 mps 759 mmHg 66%
    11:00 +17°C° 0 mm 6 mps 759 mmHg 61%
    12:00 +19°C° 0 mm 6 mps 759 mmHg 63%
    13:00 +18°C° 0 mm 7 mps 758 mmHg 64%
    14:00 +18°C° 0 mm 7 mps 757 mmHg 65%
    15:00 +17°C° 0 mm 7 mps 757 mmHg 71%
    16:00 +16°C° 0 mm 7 mps 757 mmHg 77%
    17:00 +15°C° 0 mm 7 mps 757 mmHg 82%
    18:00 +14°C° 0 mm 7 mps 757 mmHg 85%
    19:00 +12°C° 0 mm 7 mps 757 mmHg 88%
    20:00 +11°C° 0 mm 7 mps 758 mmHg 91%
    21:00 +11°C° 0 mm 6 mps 758 mmHg 92%
    22:00 +11°C° 0 mm 6 mps 757 mmHg 93%
    23:00 +12°C° 0 mm 5 mps 757 mmHg 95%

    30 March, Saturday

    Time Temperature Precipitation Wind Pressure Humidity
    00:00 +10°C° 0 mm 5 mps 757 mmHg 95%
    01:00 +11°C° 0 mm 4 mps 757 mmHg 94%
    02:00 +11°C° 0 mm 4 mps 756 mmHg 94%
    03:00 +11°C° 0 mm 4 mps 756 mmHg 94%
    04:00 +10°C° 0 mm 3 mps 756 mmHg 93%
    05:00 +10°C° 0 mm 3 mps 756 mmHg 92%
    06:00 +12°C° 0 mm 3 mps 755 mmHg 87%
    07:00 +13°C° 0 mm 3 mps 755 mmHg 81%
    08:00 +14°C° 0 mm 3 mps 755 mmHg 75%
    09:00 +17°C° 0 mm 4 mps 755 mmHg 68%
    10:00 +18°C° 0 mm 4 mps 754 mmHg 61%
    11:00 +20°C° 0 mm 4 mps 753 mmHg 55%
    12:00 +21°C° 0 mm 4 mps 753 mmHg 54%
    13:00 +22°C° 0 mm 5 mps 752 mmHg 53%
    14:00 +22°C° 0 mm 5 mps 751 mmHg 53%
    15:00 +21°C° 0 mm 5 mps 751 mmHg 58%
    16:00 +20°C° 0 mm 5 mps 750 mmHg 64%
    17:00 +19°C° 0 mm 5 mps 750 mmHg 70%
    18:00 +17°C° 0 mm 5 mps 750 mmHg 75%
    19:00 +17°C° 0 mm 4 mps 749 mmHg 79%
    20:00 +15°C° 0 mm 4 mps 749 mmHg 84%
    21:00 +15°C° 0 mm 4 mps 749 mmHg 81%
    22:00 +16°C° 0 mm 3 mps 748 mmHg 78%
    23:00 +16°C° 0 mm 3 mps 748 mmHg 75%

    31 March, Sunday

    Time Temperature Precipitation Wind Pressure Humidity
    00:00 +16°C° 0 mm 3 mps 747 mmHg 74%
    01:00 +16°C° 0 mm 3 mps 746 mmHg 73%
    02:00 +16°C° 0 mm 3 mps 746 mmHg 72%
    03:00 +16°C° 0 mm 3 mps 745 mmHg 71%
    04:00 +17°C° 0 mm 4 mps 745 mmHg 70%
    05:00 +17°C° 0 mm 4 mps 744 mmHg 69%
    06:00 +18°C° 0 mm 4 mps 744 mmHg 67%
    07:00 +18°C° 0 mm 4 mps 743 mmHg 66%
    08:00 +19°C° 0 mm 5 mps 742 mmHg 65%
    09:00 +19°C° 0.2 mm 5 mps 741 mmHg 70%
    10:00 +19°C° 0.2 mm 6 mps 741 mmHg 75%
    11:00 +17°C° 0.2 mm 6 mps 740 mmHg 80%
    12:00 +20°C° 0.1 mm 7 mps 738 mmHg 74%
    13:00 +21°C° 0.1 mm 8 mps 736 mmHg 68%
    14:00 +22°C° 0.1 mm 9 mps 735 mmHg 62%
    15:00 +21°C° 0.9 mm 8 mps 735 mmHg 65%
    16:00 +18°C° 0.9 mm 7 mps 736 mmHg 68%
    17:00 +17°C° 0.9 mm 7 mps 736 mmHg 71%
    18:00 +15°C° 0.1 mm 6 mps 738 mmHg 75%
    19:00 +13°C° 0.1 mm 5 mps 740 mmHg 79%
    20:00 +10°C° 0.1 mm 5 mps 742 mmHg 83%
    21:00 +11°C° 0 mm 4 mps 742 mmHg 79%
    22:00 +10°C° 0 mm 3 mps 743 mmHg 75%
    23:00 +10°C° 0 mm 2 mps 743 mmHg 71%
    Show more